Wetterdaten: aktuell Donnerstag, 24.06.2021 21:00
Datum Zeit Temp. A. Feuchte A. Luftdruck Regen Wind Richtung Richtung Sonnenschein ET UV Solar Taupunkt Windchill Windben
24.06.2021 21:00 15,9 C 87 % 1017,4 hPa 0,0 l/m 0,0 km/h (0 Bft) NO 34 0 min 0,026 mm 0,0 UV-I 5 W/m 13,7 C 15,9 C 0,0 km/h (0 Bft)
24.06.2021 20:00 15,8 C 86 % 1017,4 hPa 0,0 l/m 0,0 km/h (0 Bft) NO 34 0 min 0,025 mm 0,0 UV-I 32 W/m 13,5 C 15,8 C 1,6 km/h (1 Bft)
24.06.2021 19:00 15,9 C 86 % 1017,5 hPa 0,0 l/m 0,0 km/h (0 Bft) NO 35 0 min 0,025 mm 0,0 UV-I 39 W/m 13,6 C 15,9 C 0,0 km/h (0 Bft)
24.06.2021 18:00 16,3 C 87 % 1017,9 hPa 0,0 l/m 0,3 km/h (0 Bft) NW 319 0 min 0,051 mm 0,0 UV-I 44 W/m 14,1 C 16,3 C 4,8 km/h (1 Bft)
24.06.2021 17:00 16,6 C 85 % 1018,4 hPa 0,2 l/m 0,1 km/h (0 Bft) N-NW 336 0 min 0,051 mm 0,0 UV-I 69 W/m 14,1 C 16,6 C 3,2 km/h (1 Bft)
24.06.2021 16:00 17,7 C 81 % 1018,3 hPa 0,0 l/m 0,4 km/h (0 Bft) NW 325 0 min 0,051 mm 0,7 UV-I 83 W/m 14,4 C 17,7 C 4,8 km/h (1 Bft)
24.06.2021 15:00 17,8 C 82 % 1018,6 hPa 0,0 l/m 0,0 km/h (0 Bft) N 360 0 min 0,051 mm 0,8 UV-I 97 W/m 14,7 C 17,8 C 0,0 km/h (0 Bft)
24.06.2021 14:00 18,1 C 82 % 1018,7 hPa 0,0 l/m 0,0 km/h (0 Bft) N 360 0 min 0,101 mm 0,9 UV-I 104 W/m 15,0 C 18,1 C 1,6 km/h (1 Bft)
24.06.2021 13:00 17,8 C 83 % 1018,8 hPa 0,0 l/m 0,0 km/h (0 Bft) N-NW 329 0 min 0,102 mm 2,1 UV-I 274 W/m 14,9 C 17,8 C 1,6 km/h (1 Bft)
24.06.2021 12:00 17,7 C 82 % 1018,9 hPa 0,0 l/m 0,1 km/h (0 Bft) NO 36 0 min 0,178 mm 1,2 UV-I 144 W/m 14,6 C 17,7 C 3,2 km/h (1 Bft)
24.06.2021 11:00 16,8 C 86 % 1018,8 hPa 0,0 l/m 0,4 km/h (0 Bft) N 5 0 min 0,101 mm 1,6 UV-I 258 W/m 14,4 C 16,8 C 3,2 km/h (1 Bft)
24.06.2021 10:00 16,0 C 87 % 1018,9 hPa 0,0 l/m 0,0 km/h (0 Bft) N 5 0 min 0,076 mm 1,0 UV-I 186 W/m 13,8 C 16,0 C 0,0 km/h (0 Bft)
24.06.2021 09:00 15,7 C 87 % 1018,9 hPa 0,8 l/m 0,1 km/h (0 Bft) N 5 0 min 0,029 mm 0,7 UV-I 125 W/m 13,5 C 15,7 C 3,2 km/h (1 Bft)
24.06.2021 08:00 15,6 C 85 % 1019,0 hPa 0,2 l/m 0,0 km/h (0 Bft) N 0 0 min 0,025 mm 0,0 UV-I 37 W/m 13,1 C 15,6 C 0,0 km/h (0 Bft)
24.06.2021 07:00 15,6 C 82 % 1018,6 hPa 0,0 l/m 0,0 km/h (0 Bft) N 0 0 min 0,025 mm 0,0 UV-I 26 W/m 12,5 C 15,6 C 0,0 km/h (0 Bft)
24.06.2021 06:00 15,6 C 79 % 1018,1 hPa 0,0 l/m 0,0 km/h (0 Bft) NW 315 0 min 0,025 mm 0,0 UV-I 35 W/m 12,0 C 15,6 C 1,6 km/h (1 Bft)
24.06.2021 05:00 15,9 C 78 % 1018,7 hPa 0,0 l/m 0,0 km/h (0 Bft) N 0 0 min 0,025 mm 0,0 UV-I 0 W/m 12,1 C 15,9 C 0,0 km/h (0 Bft)
24.06.2021 04:00 16,1 C 79 % 1019,3 hPa 0,0 l/m 0,0 km/h (0 Bft) N 0 0 min 0,025 mm 0,0 UV-I 0 W/m 12,5 C 16,1 C 0,0 km/h (0 Bft)
24.06.2021 03:00 16,3 C 77 % 1018,7 hPa 0,0 l/m 0,0 km/h (0 Bft) O-NO 67 0 min 0,025 mm 0,0 UV-I 0 W/m 12,3 C 16,3 C 1,6 km/h (1 Bft)
24.06.2021 02:00 16,7 C 77 % 1018,8 hPa 0,0 l/m 1,6 km/h (1 Bft) N-NW 337 0 min 0,025 mm 0,0 UV-I 0 W/m 12,6 C 16,7 C 6,4 km/h (2 Bft)
24.06.2021 01:00 17,4 C 79 % 1019,2 hPa 0,0 l/m 0,0 km/h (0 Bft) O-NO 67 0 min 0,025 mm 0,0 UV-I 0 W/m 13,7 C 17,4 C 4,8 km/h (1 Bft)
24.06.2021 00:00 17,7 C 82 % 1019,5 hPa 0,0 l/m 0,0 km/h (0 Bft) N 0 0 min 0,025 mm 0,0 UV-I 0 W/m 14,6 C 17,7 C 0,0 km/h (0 Bft)
_ Min-Zeit 05:50 01:30 20:30 - 00:00 - - - - - - 04:10 05:50 00:00
Minimum _ 15,6 C 77 % 1017,2 hPa - 0,0 km/h (0 Bft) - - - - - - 11,9 C 15,6 C 0,0 km/h (0 Bft)
_ Max-Zeit 13:20 08:35 00:00 07:45 01:10 - - 00:00 12:00 11:15 11:15 13:25 13:25 01:10
Maximum _ 18,3 C 87 % 1019,5 hPa 0,2 l/m 3,2 km/h
O-NO (1 Bft)
- - 0 min 0,178 mm 2,9 UV-I 422 W/m 15,2 C 18,3 C 11,3 km/h
O (2 Bft)
Durchschnitt _ 16,6 C 82 % 1018,6 hPa #1,2 l/m 0,2 km/h (0 Bft) O-NO - #0 min. #1,067 mm 1,1 UV-I 106 W/m 13,6 C 16,6 C 2,4 km/h (1 Bft)